Theta_e
299 300 300 301 302 303 305 306 309 312 316 321 325 328 329 330 330 330 330 330 330 330 329 329 329 328 328 328 327 328 328 328 328 328 327 327 327 326 326 326 326 326 326 326 325 325 325 325 325 325 325 325 325 325 325 325 325 324 325 325 324 324 324 324 325 325 325 324 323 323 323 323 323 323 324 324 323 323 322 322 321 320 320 322 322
298 298 298 299 300 301 302 303 305 308 310 314 318 322 325 328 329 329 330 330 330 330 330 329 329 328 328 328 328 327 327 328 328 327 327 327 327 326 326 326 326 326 325 325 325 325 325 325 325 325 325 324 324 324 324 324 324 324 324 324 324 324 324 324 324 324 324 324 323 322 322 323 323 323 323 324 324 323 322 322 321 320 321 321 321
296 296 297 298 299 300 301 302 303 304 306 309 312 316 319 323 326 328 329 330 330 330 330 329 329 329 328 328 327 327 327 327 327 327 327 327 326 326 326 325 325 325 325 325 325 325 325 324 325 325 324 324 324 324 324 324 324 324 324 324 324 324 324 324 324 324 324 324 323 322 322 322 323 323 323 324 323 322 322 322 321 321 321 321 320
295 295 296 297 297 298 299 300 301 301 303 305 307 309 312 316 320 324 326 328 329 329 330 330 329 329 328 328 328 327 327 327 327 327 326 326 326 326 326 326 325 325 325 325 325 325 324 324 324 324 324 324 324 324 324 324 324 324 324 324 324 324 324 324 324 324 323 323 323 322 322 322 322 323 323 323 323 322 322 321 321 321 320 320 320
294 295 295 296 296 297 298 299 299 300 300 301 302 304 306 310 314 318 322 324 327 328 329 329 329 329 329 328 328 327 327 327 327 326 326 326 326 326 326 325 325 325 325 325 325 324 324 324 324 324 324 324 324 323 323 323 323 323 323 323 323 323 323 323 323 323 323 322 323 322 321 321 321 321 321 321 321 321 321 321 321 321 320 319 319
293 294 295 295 296 297 297 298 299 299 299 300 300 301 303 305 308 312 316 320 323 325 327 328 328 328 329 328 328 327 327 327 327 326 326 326 326 326 326 326 325 325 325 325 324 324 324 324 324 324 324 323 323 323 323 323 323 323 323 323 323 323 323 323 323 322 322 321 321 321 321 321 321 320 319 319 319 320 321 321 320 320 319 318 318
293 293 294 295 295 296 296 297 298 298 299 299 299 300 301 302 304 306 310 314 317 321 323 326 327 328 328 327 327 327 327 327 327 326 326 326 325 325 325 325 325 325 324 324 324 324 324 324 324 324 323 323 323 323 323 323 323 323 323 323 323 322 322 322 321 321 321 320 320 321 321 321 321 320 319 319 319 320 320 320 320 319 318 318 317
293 293 294 294 295 295 295 296 297 297 297 297 298 298 299 300 301 303 305 308 311 315 319 322 325 326 326 326 326 327 326 326 326 326 326 326 325 325 325 325 325 325 324 324 324 324 324 324 323 323 323 323 323 323 323 323 323 323 322 322 322 322 321 321 320 320 320 320 320 320 320 320 319 319 319 318 318 318 319 319 319 319 318 317 316
292 293 293 294 294 294 295 295 296 297 297 297 297 297 298 298 299 301 302 304 307 310 314 317 321 323 324 324 325 325 325 325 325 325 325 325 325 325 324 324 324 324 324 324 324 323 323 323 323 323 323 323 323 323 323 323 322 322 322 321 321 321 320 320 319 319 319 319 319 318 318 318 318 318 317 317 317 318 318 318 318 318 317 316 316
292 293 293 293 293 294 294 295 295 296 297 297 297 297 297 297 298 299 300 302 304 307 309 313 316 319 321 322 322 323 324 324 324 325 325 325 324 324 324 324 324 324 324 323 323 323 323 323 323 323 323 323 323 323 323 322 322 321 321 320 320 320 319 319 319 318 318 318 317 317 316 316 316 317 316 316 317 317 317 316 317 317 315 313 313
291 292 292 293 293 293 294 294 295 295 296 296 297 297 296 297 297 298 299 300 302 304 306 309 312 315 318 319 320 321 322 323 324 324 324 324 324 324 324 324 323 323 323 323 322 322 322 322 322 322 322 323 323 322 322 322 321 320 319 318 318 318 318 318 318 318 317 317 316 316 315 315 316 316 316 316 316 316 316 316 316 315 313 312 312
291 291 292 292 292 292 293 293 294 294 295 295 296 296 296 296 297 297 298 299 300 301 303 306 309 312 315 317 318 319 320 321 322 322 323 324 324 323 323 323 323 322 322 322 322 321 321 321 321 322 322 322 322 322 321 321 320 319 318 317 317 316 316 317 317 317 317 316 316 315 315 315 315 315 315 315 315 315 315 315 314 314 312 312 312
291 291 291 291 291 292 292 292 293 293 294 294 295 295 296 296 297 297 297 298 298 299 301 303 306 308 311 314 316 317 318 319 320 321 322 322 323 322 322 322 322 322 321 321 321 320 320 320 320 320 320 321 320 320 319 319 318 318 317 317 317 316 316 316 315 315 315 315 315 315 315 315 315 315 315 315 315 315 314 313 313 313 312 311 311
290 291 291 291 291 291 291 292 292 293 293 293 294 294 295 296 296 296 297 297 298 298 300 301 304 306 308 310 312 314 316 318 319 320 321 321 321 321 320 320 320 320 320 320 320 319 319 318 318 318 318 318 318 317 317 317 317 316 315 315 314 314 314 314 314 314 315 315 315 315 314 314 314 314 314 314 315 314 313 313 312 312 310 309 308
290 290 291 291 291 291 291 291 291 292 292 292 293 294 294 295 296 296 296 297 297 297 298 300 302 303 305 307 308 311 313 315 317 319 320 320 320 319 318 318 318 318 319 319 318 318 318 317 317 317 316 316 315 314 314 313 313 313 312 312 312 312 312 313 314 314 314 314 313 312 313 313 313 314 313 313 313 313 313 313 312 310 309 306 305
289 290 290 290 291 291 291 291 291 291 291 292 292 293 293 294 295 295 296 296 297 297 298 299 300 301 303 304 306 307 310 312 314 316 318 318 317 317 316 315 316 316 316 316 316 316 316 316 315 314 313 312 312 311 310 310 310 311 310 311 311 311 311 312 312 313 312 313 312 312 312 312 312 312 312 312 312 312 311 310 309 308 305 302 300
289 289 290 290 290 290 290 291 291 290 290 291 291 292 292 293 293 294 295 296 296 297 298 299 299 301 302 303 304 305 307 309 311 313 315 316 315 314 313 313 313 313 314 314 314 314 314 314 313 311 309 309 309 308 308 308 309 309 309 309 308 308 308 309 309 309 309 310 310 310 310 310 309 309 309 310 310 310 309 307 305 304 302 300 299
288 289 289 290 290 290 290 290 290 290 290 290 290 291 291 292 292 293 294 295 296 296 297 298 298 299 301 302 303 304 305 307 309 311 312 313 312 311 311 310 310 311 311 312 312 312 312 312 310 308 307 306 306 306 306 307 307 307 307 307 306 306 305 305 305 305 306 306 307 307 307 307 307 307 307 307 307 307 307 306 305 303 302 301 300
288 288 289 289 289 289 289 289 289 290 290 290 290 290 291 291 291 292 293 294 295 295 296 297 297 298 300 300 301 303 304 305 307 309 309 309 309 309 308 308 308 308 308 308 308 308 308 307 306 305 305 304 304 304 305 305 305 305 304 304 304 303 303 302 302 303 303 303 304 304 304 305 305 305 305 304 305 305 304 304 304 302 301 300 298
288 288 288 288 288 288 288 288 289 289 289 289 290 290 290 290 291 291 292 292 293 294 295 296 296 297 299 299 300 302 303 303 304 307 307 306 305 306 306 306 307 306 305 305 305 304 304 303 303 303 303 303 303 303 303 303 303 302 302 302 302 302 301 301 301 302 302 302 302 302 302 302 302 302 302 302 302 302 302 302 301 300 299 298 296
287 287 287 287 287 287 287 287 288 288 288 289 289 289 290 290 290 291 291 292 292 293 294 295 296 297 298 299 299 300 302 302 303 304 306 306 304 304 304 305 306 306 304 302 302 302 301 301 301 301 302 302 302 302 302 302 302 301 301 302 302 301 301 301 301 301 301 301 300 300 300 300 300 300 300 300 300 299 299 299 298 297 296 295 295
286 286 286 286 286 286 286 286 287 287 288 288 288 289 289 290 290 290 291 291 292 292 293 294 295 296 297 298 299 299 300 301 301 302 303 304 304 303 303 303 304 304 302 300 299 299 300 300 300 301 301 301 301 302 302 302 301 301 301 301 301 301 301 301 300 299 299 299 298 297 297 297 297 297 297 296 295 294 294 294 294 294 294 293 294
284 284 284 284 284 284 285 285 286 286 286 287 287 287 288 289 289 290 290 291 292 292 293 294 295 296 296 297 298 298 298 299 299 300 301 302 301 301 302 302 302 302 301 300 299 298 298 298 299 300 300 300 301 301 301 301 301 300 300 300 300 300 301 300 299 298 298 297 297 296 295 295 294 294 293 293 292 291 291 291 291 291 291 291 292
283 282 283 283 283 284 284 284 284 284 284 285 286 286 287 288 289 289 290 291 291 292 293 294 295 295 296 296 297 297 298 297 297 298 299 300 300 299 299 300 300 300 299 299 298 298 297 297 298 299 299 300 300 300 300 299 299 299 300 300 300 299 299 298 297 296 295 295 295 295 294 293 292 292 291 290 290 289 289 290 289 290 290 290 290
281 281 282 282 282 282 282 282 282 283 283 284 285 286 287 288 289 289 290 291 291 292 293 293 294 295 295 296 296 297 297 297 297 296 296 297 298 297 297 297 298 298 298 297 297 297 296 296 297 299 299 299 299 298 298 298 298 298 298 299 298 298 297 297 296 295 294 294 294 293 292 292 291 290 290 289 289 289 289 289 289 289 289 288 288
280 281 281 281 281 281 281 281 282 282 283 284 285 286 287 288 288 289 289 290 291 292 292 293 294 294 295 296 297 297 296 296 296 296 295 295 295 296 296 296 297 297 297 297 296 296 296 296 297 298 297 297 297 297 296 296 296 296 296 296 297 296 296 296 295 294 293 294 293 293 291 290 289 289 289 288 288 288 288 288 288 287 287 287 287
279 279 279 279 279 280 280 281 281 282 283 284 286 286 287 288 288 288 289 290 290 291 292 293 293 294 295 295 296 296 296 295 295 295 295 294 294 295 296 296 296 296 296 296 296 296 296 296 297 296 295 295 295 295 294 294 294 293 293 293 295 295 295 296 295 294 294 294 292 291 289 287 287 288 288 288 287 287 288 288 287 286 286 286 286
276 277 277 278 278 279 280 281 282 282 283 285 285 286 286 287 287 287 288 289 289 290 291 292 293 294 294 295 295 296 295 295 294 295 295 294 294 294 295 295 296 296 296 295 295 295 296 295 294 293 293 293 292 292 292 291 290 290 290 291 292 293 294 295 295 294 294 293 291 288 287 286 287 287 287 287 287 287 287 286 286 286 285 286 286
275 276 276 277 278 279 280 281 282 283 284 285 285 286 286 286 286 286 287 287 288 289 289 290 291 292 293 294 295 296 296 296 295 295 294 294 294 294 295 295 295 295 295 294 294 294 294 292 291 291 291 290 290 289 288 288 288 288 288 289 290 291 292 293 292 292 291 290 289 287 287 286 286 286 287 286 286 287 286 285 285 285 285 286 286
275 276 277 278 279 280 281 281 282 282 283 283 284 284 285 285 285 285 285 286 286 287 288 289 289 290 291 293 294 295 296 296 296 296 295 295 294 295 295 295 294 294 294 294 293 293 291 290 290 289 289 288 287 287 286 286 286 286 287 287 288 289 290 290 291 290 290 289 288 287 287 286 286 286 286 285 285 286 285 285 285 285 285 285 285
275 276 277 278 279 279 279 279 280 280 281 281 282 282 283 283 284 284 285 285 286 286 287 288 288 289 290 291 292 293 295 295 296 296 296 295 294 294 294 294 294 294 293 293 292 291 291 290 290 289 288 288 287 286 286 286 285 285 286 286 286 287 288 288 289 289 288 288 287 287 286 286 285 285 285 285 285 284 284 284 284 284 284 284 283
276 276 276 276 276 276 277 277 278 279 279 279 280 282 282 283 283 284 284 285 285 286 287 288 289 289 290 290 291 292 293 294 295 295 295 295 294 294 294 294 293 293 293 292 292 291 291 290 289 288 288 287 287 286 286 286 285 285 285 285 286 287 287 287 287 288 287 286 286 286 286 285 285 284 284 284 284 283 283 282 282 282 282 282 281
274 273 274 274 275 275 275 276 276 277 277 278 279 280 281 282 283 284 284 285 286 287 288 288 289 289 290 290 291 291 292 293 294 294 294 294 294 294 293 293 292 292 292 291 291 291 290 290 289 288 287 287 286 286 285 285 285 285 285 285 285 285 285 286 286 286 285 285 285 285 285 285 285 284 283 283 283 282 282 281 281 281 281 280 279
271 271 272 273 274 274 274 274 275 275 276 277 278 279 280 281 282 283 284 285 286 287 288 289 289 290 290 290 291 291 291 292 293 293 294 294 294 293 292 292 291 291 291 291 291 291 290 289 289 288 287 287 286 285 284 285 285 284 284 284 283 283 284 284 284 283 282 282 282 282 283 284 283 282 282 281 281 281 281 280 280 280 280 279 277
270 271 272 272 272 273 273 273 274 274 275 276 277 278 279 280 282 283 284 285 286 287 288 289 289 290 290 290 290 291 291 292 292 293 293 293 293 292 291 290 290 290 291 291 291 290 290 289 288 287 287 286 285 284 284 284 284 283 283 283 283 283 282 282 282 281 280 280 279 279 280 281 281 281 281 280 280 279 279 279 279 279 278 278 277
270 271 271 271 271 271 271 272 273 273 274 275 276 277 278 280 281 283 284 285 286 287 287 288 289 290 290 290 291 291 291 292 292 292 292 292 292 291 290 290 290 290 290 290 290 290 290 289 288 287 286 285 284 283 284 284 283 283 284 283 283 282 281 281 280 280 280 279 278 278 279 279 279 279 279 279 279 278 278 278 278 277 277 277 276
269 270 270 270 269 270 270 271 272 272 273 274 275 276 277 278 280 281 283 284 286 287 287 288 289 290 290 290 290 291 291 291 292 292 291 291 291 290 290 290 290 290 290 290 289 289 289 288 287 286 286 284 283 283 283 283 283 283 283 283 282 281 280 280 279 279 279 278 277 278 278 277 277 278 278 278 277 277 277 277 276 276 276 275 275
268 268 268 268 268 269 270 270 271 272 273 273 274 275 276 278 279 280 282 284 285 286 287 288 289 290 290 290 290 290 290 290 290 290 290 290 290 290 290 290 290 290 290 289 289 288 288 287 286 286 285 284 283 283 283 282 282 282 281 281 280 280 279 279 278 278 278 277 277 277 276 276 276 277 277 277 277 276 276 275 275 274 274 274 274
267 267 267 267 268 268 269 270 270 271 272 273 274 275 276 277 279 280 282 284 285 286 287 288 289 290 290 289 289 289 289 289 288 288 288 289 289 289 289 289 289 289 289 289 288 288 287 287 286 286 285 284 283 282 282 282 281 281 281 280 279 278 278 278 277 277 277 276 276 275 275 275 275 275 276 276 275 275 274 274 274 274 274 274 274
266 266 266 267 267 268 269 269 270 271 272 273 274 275 276 277 278 280 282 284 285 286 287 288 289 289 290 289 289 288 288 288 288 288 288 288 288 288 288 288 288 289 288 288 288 287 287 286 286 286 285 284 283 282 281 281 281 281 281 280 279 278 277 277 276 276 276 275 275 274 274 274 274 274 274 274 274 273 273 273 273 273 273 273 273
265 266 266 266 267 268 268 269 270 270 271 272 273 274 275 277 278 280 281 283 285 286 287 288 289 289 289 289 288 288 288 288 287 287 287 287 287 288 288 287 288 288 288 287 287 287 286 286 285 285 284 283 281 280 280 281 280 280 279 278 278 277 276 276 275 275 275 274 274 273 273 273 273 273 273 273 273 272 272 272 272 272 272 272 272
265 265 266 266 267 267 268 269 269 270 271 272 273 274 275 277 278 280 281 283 284 286 287 288 288 289 289 288 288 288 288 288 288 287 287 287 287 287 287 287 287 287 287 287 286 286 285 285 284 283 282 281 280 279 280 280 278 277 277 277 276 275 275 274 274 274 274 273 273 273 272 272 272 272 272 272 272 272 271 271 271 271 271 271 272
264 265 265 266 266 267 268 269 269 270 271 272 273 274 275 277 278 280 281 283 284 286 287 287 288 288 288 287 287 287 287 287 287 287 286 286 286 285 285 285 286 286 286 285 284 283 283 282 281 280 279 278 278 279 279 278 278 278 278 278 276 275 275 274 274 273 273 273 272 272 271 271 271 272 271 271 271 271 271 271 271 271 271 271 271
264 264 265 266 266 267 268 268 269 270 271 272 273 274 276 277 278 280 281 283 284 286 286 287 288 287 286 285 286 286 285 284 284 285 284 283 283 282 281 281 282 282 281 281 280 280 281 280 279 278 277 277 278 278 279 279 280 281 281 279 276 276 276 276 275 274 273 272 271 271 271 271 271 271 271 271 270 270 270 270 270 270 270 270 270
263 264 265 265 266 267 267 268 269 270 271 272 273 275 276 277 278 280 281 282 284 285 287 287 286 285 284 283 284 283 281 280 280 280 279 278 278 278 277 278 278 278 277 278 278 279 279 278 277 277 276 276 277 278 279 280 281 282 282 281 280 279 278 278 277 275 274 273 272 270 270 270 270 270 270 270 270 269 269 269 269 270 270 270 270
263 264 264 265 266 266 267 268 269 270 271 272 274 275 276 277 279 280 281 283 284 285 285 284 283 282 281 280 280 278 277 276 276 275 274 275 275 275 275 275 276 275 275 276 277 277 276 276 276 276 276 276 277 278 279 280 280 280 280 281 281 280 279 278 277 275 274 274 273 272 270 270 270 270 269 269 269 269 269 269 269 269 270 270 270
263 264 264 265 266 266 267 268 269 270 271 273 274 275 276 277 279 280 282 284 284 284 282 280 279 279 277 276 275 274 273 273 273 273 273 273 273 273 273 273 273 273 273 274 275 276 276 276 276 276 276 276 277 278 278 278 278 278 278 277 278 278 277 276 275 274 274 275 275 274 273 271 270 270 270 270 270 270 269 269 269 269 270 270 269
263 263 264 265 265 266 267 268 269 270 272 273 274 275 276 277 279 280 282 282 281 279 278 276 276 275 273 272 272 272 271 271 271 271 271 272 272 272 272 271 272 272 272 272 272 274 275 276 276 276 276 276 276 276 276 275 275 275 275 274 275 275 274 274 273 273 273 273 274 274 274 273 272 272 272 272 272 272 271 271 270 270 270 270 269
263 264 264 265 266 266 267 268 269 270 271 272 273 274 275 276 277 278 278 277 276 275 274 273 272 271 270 269 269 269 269 269 269 268 269 269 270 270 270 271 271 271 271 271 271 272 274 274 275 275 274 274 274 273 273 273 273 272 272 272 272 272 273 272 272 272 272 272 272 273 273 273 273 272 272 272 272 273 272 272 271 271 271 271 270
263 264 264 265 265 266 267 267 268 269 270 271 272 273 273 274 274 273 273 273 272 271 271 270 269 269 268 267 267 267 267 267 267 266 267 268 268 268 268 268 269 270 271 270 270 271 272 273 273 273 272 272 271 271 271 271 271 271 271 271 271 271 271 271 271 271 272 272 272 272 273 273 273 272 271 272 272 272 272 272 271 271 271 271 270
262 263 263 264 265 265 266 266 267 268 268 269 270 271 271 271 270 270 270 269 269 268 268 268 267 267 267 266 266 266 266 266 266 266 266 266 267 268 268 268 268 268 269 269 269 270 270 270 271 271 270 270 269 269 269 269 269 270 270 270 270 270 270 271 271 271 272 272 272 273 273 273 273 272 271 271 271 271 271 271 271 271 271 270 270
Wind_Speed
30 31 32 31 31 31 29 26 24 24 26 29 30 32 33 35 37 37 35 34 35 35 33 32 32 35 37 37 37 38 37 34 27 22 24 26 24 23 22 23 24 24 23 23 23 23 25 26 26 27 26 25 25 25 26 26 24 23 22 22 22 21 22 22 16 12 16 19 16 15 14 13 14 13 13 13 12 10 9 11 12 12 12 11 9
30 30 31 32 32 33 33 30 27 24 24 25 27 30 31 32 34 35 34 35 34 34 35 34 33 34 37 40 42 44 43 40 34 25 23 27 25 22 21 23 25 25 24 24 23 22 25 26 26 27 27 27 28 26 26 27 26 26 25 24 24 23 23 26 22 14 15 20 21 18 16 15 15 15 13 13 11 9 9 10 11 11 11 9 7
30 31 31 31 33 34 34 33 31 29 26 24 24 25 27 29 31 32 34 35 32 32 34 34 32 34 38 39 40 43 43 41 38 30 24 26 26 23 23 24 24 26 26 26 25 23 25 28 28 26 26 28 30 29 28 28 28 28 28 27 26 25 24 25 24 18 15 18 21 21 17 15 15 14 13 13 12 10 10 9 8 9 10 8 6
31 33 33 34 36 35 34 35 36 34 30 28 27 26 25 26 28 30 32 33 32 32 33 33 33 34 38 36 32 36 42 42 38 32 26 25 25 25 25 24 24 26 27 27 27 26 27 30 30 27 27 30 30 29 28 27 28 29 28 28 27 27 25 24 25 23 18 17 19 21 20 17 16 14 12 11 10 11 12 10 8 8 8 7 6
32 33 33 36 39 37 34 35 36 37 36 34 33 32 29 27 26 27 29 31 32 32 33 34 34 34 33 31 27 29 36 38 34 29 27 26 25 25 25 24 25 27 27 28 28 29 29 29 29 28 28 31 31 30 29 28 27 28 28 27 27 27 27 26 26 25 23 20 19 21 22 21 19 18 16 14 12 12 13 13 10 9 7 7 8
33 33 33 34 35 34 33 34 35 37 38 37 36 35 33 30 28 27 27 28 29 32 33 33 34 35 32 29 27 26 27 28 29 28 27 27 25 25 25 24 26 28 29 29 29 30 30 28 27 27 28 30 31 30 30 30 28 28 29 28 27 26 26 26 26 24 24 23 22 21 21 20 19 20 20 18 16 14 12 11 11 12 11 9 9
32 33 32 32 31 31 34 35 35 35 36 37 38 37 36 34 32 30 28 27 28 31 33 33 33 34 34 30 27 26 25 25 26 27 26 26 26 25 25 25 26 27 30 30 29 28 28 27 27 29 30 31 33 32 30 30 29 30 30 29 27 26 25 25 25 25 25 24 23 22 21 20 19 19 18 18 19 17 14 11 11 11 12 11 10
31 31 30 30 30 32 34 35 34 36 39 41 40 38 37 37 35 33 31 29 29 30 31 33 34 34 35 33 30 30 30 28 27 27 25 25 26 26 27 27 27 26 27 30 30 29 28 27 28 31 32 33 35 35 32 29 28 29 30 29 27 26 25 24 23 24 23 21 20 21 20 19 19 20 19 18 17 17 17 17 15 12 12 12 12
30 29 28 29 30 32 34 33 33 36 40 42 42 41 40 39 37 34 33 32 30 30 30 32 34 35 36 36 34 33 34 33 32 32 29 27 26 25 26 28 29 29 29 30 32 32 31 30 31 32 34 34 35 35 33 30 28 28 29 29 28 26 25 23 23 22 21 19 18 18 17 18 18 18 18 19 18 17 17 17 18 17 15 14 14
28 28 28 29 30 31 32 32 33 34 35 36 38 40 41 40 38 37 35 32 31 30 30 31 33 36 37 35 35 35 36 38 38 38 36 33 29 27 28 31 33 33 33 32 33 33 34 34 34 34 34 34 34 34 34 33 31 29 27 26 27 26 24 23 22 22 21 19 18 16 14 16 19 19 18 19 20 20 18 17 18 18 15 11 11
27 27 28 29 29 30 30 31 32 32 33 33 33 37 41 42 41 39 36 33 32 30 30 31 34 36 36 34 34 37 40 42 42 41 40 39 36 34 34 36 36 35 34 34 34 34 35 35 34 34 34 34 34 34 33 33 32 30 27 25 25 26 25 24 23 23 22 18 17 17 16 15 17 19 19 18 18 19 19 18 19 18 15 10 6
26 25 26 27 29 29 29 30 31 31 32 33 34 37 40 43 42 40 39 37 34 32 29 30 33 35 35 34 35 37 40 42 42 41 41 42 41 39 38 37 37 37 36 35 35 34 34 34 33 33 33 33 33 33 32 31 30 29 28 27 26 26 26 26 23 20 20 19 18 19 20 18 16 17 19 19 19 19 20 20 19 18 16 12 8
26 26 26 26 27 27 28 29 30 31 32 34 36 37 37 37 38 40 42 40 36 34 31 28 28 31 32 35 36 37 38 40 40 40 40 41 41 40 39 37 37 37 36 35 35 33 32 32 32 32 32 32 32 32 31 30 28 27 27 27 27 25 25 25 24 23 22 23 21 20 20 18 15 16 17 19 19 19 19 19 19 18 16 14 11
28 27 27 26 26 26 27 28 28 30 31 33 35 35 34 34 35 37 39 38 36 36 34 28 25 26 28 32 35 37 38 39 38 38 39 39 40 40 39 38 36 36 36 36 35 34 33 33 33 33 33 32 32 31 30 29 28 27 26 26 26 25 24 25 27 27 24 22 19 17 16 17 17 17 16 17 19 19 18 20 20 19 17 14 12
28 28 28 28 28 27 27 28 28 29 30 31 33 34 33 33 33 34 34 35 37 39 36 31 28 26 26 27 30 34 37 38 38 37 38 38 38 38 38 37 35 34 34 35 35 35 34 33 32 33 33 33 32 32 31 30 29 27 26 25 24 24 24 24 24 24 24 23 22 21 21 20 19 17 14 14 16 16 16 18 19 18 16 12 10
27 28 28 29 29 28 28 29 29 30 30 29 30 31 33 34 33 32 33 35 36 36 35 35 32 28 26 24 25 30 34 35 36 36 36 36 36 36 36 36 34 33 33 34 34 33 33 32 31 31 31 32 31 31 29 28 27 26 25 25 24 23 23 23 22 22 22 23 22 22 20 18 16 15 13 13 15 15 14 14 14 15 14 10 8
26 27 28 27 28 29 30 29 30 32 32 31 30 29 31 34 35 32 31 31 31 30 31 35 34 30 26 24 23 26 29 32 34 34 34 34 34 34 35 34 32 32 32 32 32 32 32 32 31 29 29 30 30 29 28 27 27 27 26 25 23 22 21 21 21 20 19 19 18 18 17 15 14 13 13 13 15 16 16 15 15 16 14 8 5
26 27 27 28 28 29 30 30 30 31 32 33 33 31 31 34 36 34 30 29 29 30 30 34 36 32 27 24 24 25 27 29 30 31 31 32 33 34 34 32 30 30 30 30 30 31 31 30 30 29 28 29 30 29 29 29 29 29 28 26 24 24 23 22 20 19 18 17 16 16 15 15 15 14 14 15 16 17 17 16 17 17 14 8 6
26 27 28 29 29 29 29 30 30 30 31 32 33 33 33 34 35 36 33 29 29 30 30 32 36 35 30 28 29 29 28 28 28 28 29 30 31 32 31 28 27 27 28 28 28 29 29 29 29 29 28 28 29 30 31 31 30 29 29 28 27 27 26 25 22 20 19 17 17 16 16 16 16 15 15 15 16 16 17 16 16 16 13 10 10
27 28 29 29 30 29 29 29 30 30 30 31 32 33 34 34 34 35 35 34 31 30 30 31 35 37 34 32 31 31 29 29 28 27 27 29 31 30 25 23 26 27 26 28 29 29 29 29 29 29 28 28 27 29 30 31 29 28 29 31 31 29 28 25 22 21 20 19 18 18 17 16 15 15 14 14 14 16 16 16 16 15 13 12 13
28 29 29 29 30 30 29 29 30 31 31 30 31 33 33 33 33 34 35 35 33 32 31 31 32 34 34 34 33 32 30 29 29 27 27 29 32 31 24 22 26 29 26 26 28 29 30 31 30 29 29 29 28 28 29 28 28 27 28 30 29 27 26 24 23 22 21 21 20 19 17 17 15 14 14 14 14 15 15 15 16 16 15 14 15
29 29 29 30 30 30 30 30 30 31 31 30 31 33 33 32 32 32 32 32 33 33 32 31 28 29 31 32 33 33 31 29 29 29 28 29 32 34 29 23 24 26 24 23 25 27 29 31 32 32 31 29 28 27 27 27 28 27 25 25 24 22 23 24 24 24 23 22 21 19 18 17 16 15 14 14 14 13 13 13 13 14 15 14 15
29 28 29 30 30 29 30 31 31 31 31 31 32 33 34 33 32 31 29 29 30 30 30 28 26 25 26 26 26 29 30 30 29 30 30 30 32 35 34 29 25 24 23 22 22 23 25 29 32 31 29 28 27 27 26 26 27 26 24 23 23 22 23 25 25 25 23 22 21 20 18 17 16 16 16 15 15 14 14 13 13 13 13 12 13
29 29 29 29 29 29 29 32 34 33 33 33 32 33 33 32 31 29 26 25 25 26 27 26 23 21 21 21 21 22 26 30 30 29 30 31 31 33 34 31 28 25 22 19 17 17 20 27 29 28 27 27 27 26 25 26 27 25 23 22 22 23 24 26 26 24 22 22 22 20 19 18 17 18 18 18 17 16 15 14 13 12 11 11 11
28 28 29 29 29 30 32 34 35 34 33 32 30 31 31 29 28 27 25 23 22 22 24 24 22 21 20 20 19 19 21 27 30 30 29 30 32 33 33 32 29 27 24 21 18 17 20 23 25 25 27 28 27 25 25 25 25 24 23 23 23 24 27 27 26 24 23 24 23 21 20 19 19 19 19 19 17 17 16 15 13 12 11 10 11
28 28 29 30 30 30 31 32 32 32 31 29 28 28 28 27 26 26 25 24 22 21 22 21 21 21 21 20 20 19 19 25 30 30 29 29 31 33 33 31 29 27 25 22 20 19 19 21 23 25 27 27 26 26 25 24 23 22 21 22 24 26 27 26 25 25 26 25 24 22 21 20 19 19 20 19 18 17 17 16 15 13 12 11 12
28 29 30 30 29 27 28 29 30 30 29 28 27 27 27 26 25 25 25 24 23 22 21 20 19 20 21 21 22 22 21 23 28 31 31 31 32 33 33 32 30 28 25 23 22 20 19 21 24 26 26 25 24 23 22 21 21 22 23 25 27 28 27 26 25 26 26 26 25 23 20 18 18 20 21 20 19 17 17 17 17 16 15 14 13
29 29 30 29 27 26 27 28 29 29 28 27 27 28 27 26 26 26 26 25 24 24 23 22 21 21 21 21 21 21 21 24 29 32 33 33 32 32 32 32 32 31 29 27 24 22 21 24 25 25 24 23 21 20 19 20 22 24 26 28 28 28 27 26 25 25 25 26 25 23 20 20 22 23 22 20 19 19 17 16 16 18 18 15 12
28 28 28 27 26 26 26 26 26 26 27 27 28 28 29 28 28 30 31 30 29 29 28 27 27 26 25 24 22 20 21 25 29 29 29 30 32 33 33 32 31 31 29 27 25 25 26 27 27 26 25 23 21 20 21 23 24 25 26 26 27 27 27 27 27 26 26 28 27 25 24 25 24 24 22 20 20 20 17 15 17 21 20 15 10
27 27 28 26 25 25 25 25 25 25 27 29 30 32 34 33 32 34 36 37 37 36 35 36 37 34 31 31 29 27 28 30 28 25 26 29 31 33 34 33 30 27 26 26 27 28 28 26 25 25 25 24 23 23 24 26 25 25 25 24 24 27 28 28 29 29 29 29 29 27 27 27 26 24 22 21 20 20 18 17 19 20 18 13 11
26 26 25 24 24 26 27 28 29 28 27 28 30 33 35 37 37 37 38 40 41 41 40 42 44 42 39 38 37 35 34 34 30 28 27 28 29 32 34 33 31 29 28 29 29 29 29 25 23 24 25 24 24 24 26 27 26 26 26 23 21 25 29 28 28 30 29 29 28 28 28 28 26 25 23 22 22 21 19 19 19 17 14 11 11
23 24 26 26 28 30 29 28 28 27 26 26 28 29 30 32 36 39 38 37 37 38 39 39 41 40 39 40 40 39 36 33 30 29 28 27 28 32 33 34 33 31 31 31 30 30 29 26 23 24 25 25 24 25 26 26 25 26 26 23 20 24 28 27 28 30 30 28 28 28 27 27 26 24 22 22 22 21 19 19 19 17 15 13 13
25 28 30 30 29 28 26 25 26 26 26 26 26 27 26 26 28 33 37 34 31 33 35 37 38 37 36 36 37 39 38 34 30 28 29 28 29 30 32 34 34 32 33 35 32 30 30 28 26 25 25 25 24 24 24 24 24 25 25 22 19 21 25 26 27 27 26 26 28 27 26 27 25 22 21 21 21 21 19 18 17 17 16 14 14
31 31 31 30 29 27 26 26 26 27 27 27 26 26 28 28 27 28 32 31 26 25 28 31 32 31 32 33 33 35 37 36 32 30 29 29 29 30 31 32 31 32 36 39 36 30 28 28 27 26 25 23 21 22 24 25 25 22 20 19 20 22 25 26 25 21 17 18 20 21 23 26 25 22 21 20 19 18 18 18 18 16 14 13 12
32 31 30 28 27 27 27 27 27 27 27 27 27 27 28 29 29 28 28 27 25 25 26 27 26 25 26 28 30 31 33 34 33 31 30 29 29 30 29 29 30 34 38 41 37 31 28 27 26 27 28 24 21 23 30 32 29 24 24 26 27 27 28 26 22 19 16 15 14 15 19 23 24 22 21 20 18 17 16 16 16 15 14 13 12
29 28 26 25 25 26 28 28 28 28 28 27 28 29 29 29 29 29 29 29 29 29 30 28 26 24 24 26 28 28 30 32 32 31 31 30 30 31 31 30 31 35 37 37 35 33 30 28 27 28 26 22 23 32 38 37 33 30 31 32 32 31 29 26 23 22 21 18 17 18 20 20 21 21 20 20 18 17 16 16 15 15 15 14 13
28 25 25 26 27 28 29 30 29 29 30 29 29 29 29 30 30 29 29 29 29 30 31 29 26 23 22 22 23 24 27 29 29 30 30 31 32 36 38 36 33 32 33 32 30 28 24 21 22 24 20 16 23 35 40 37 34 33 32 32 32 31 29 27 25 25 23 21 20 21 20 18 19 22 22 20 17 16 17 17 15 13 14 15 14
27 26 28 31 30 29 29 30 29 29 29 29 29 29 29 30 30 29 29 29 28 28 29 28 24 21 19 18 18 20 22 22 24 26 29 31 35 39 40 37 33 32 32 31 30 27 22 19 21 24 20 16 21 32 37 35 34 34 33 31 30 29 27 26 26 25 24 21 19 19 19 17 19 22 23 21 18 16 15 14 12 11 12 14 14
26 29 31 31 30 29 29 29 29 29 28 27 27 28 28 29 29 28 28 28 27 27 27 26 23 22 20 17 16 18 18 18 20 23 25 28 32 35 35 34 34 33 32 31 30 29 26 27 30 29 25 22 25 31 35 35 34 35 34 32 30 28 27 27 26 24 23 20 19 18 17 15 14 17 21 20 16 12 11 11 10 10 12 13 13
28 30 30 28 27 27 28 28 29 28 27 27 27 27 27 28 28 28 28 26 26 26 26 25 23 22 20 18 19 20 20 20 22 23 23 25 29 31 30 30 31 32 31 31 32 30 29 30 32 31 28 28 29 30 32 34 34 34 34 33 31 29 27 26 26 25 23 20 19 19 18 15 12 13 14 14 11 11 12 12 10 10 11 12 13
29 29 28 27 27 27 28 28 28 28 28 28 28 28 28 29 28 28 28 27 26 26 26 25 25 23 21 21 24 25 24 22 24 26 27 28 30 31 30 28 28 29 29 30 32 31 30 30 31 31 31 31 30 29 32 34 34 33 33 32 30 29 27 25 25 25 23 21 20 20 19 19 17 13 12 13 13 14 16 14 11 11 11 11 12
29 29 29 28 27 27 27 27 27 27 28 28 29 29 29 29 29 28 28 27 26 25 24 25 25 24 22 23 27 29 27 24 24 26 27 28 29 30 29 27 27 28 29 27 27 28 29 29 30 30 30 31 31 32 33 33 31 30 31 30 28 27 26 25 24 24 23 22 22 21 21 22 20 17 17 18 19 18 17 14 13 15 15 12 11
29 30 30 29 28 28 28 28 28 28 28 28 29 30 30 30 29 29 28 27 26 25 24 24 23 21 20 22 27 30 28 24 22 23 23 24 25 25 23 23 24 25 26 26 26 27 29 29 29 28 28 28 31 33 33 31 30 31 31 30 27 26 26 26 25 25 24 23 23 23 23 23 22 21 22 22 21 21 20 18 17 18 16 12 10
29 29 29 29 29 29 28 28 28 28 29 30 31 31 31 29 28 28 28 26 25 25 24 24 21 18 16 19 25 27 24 19 18 20 21 22 23 23 22 23 24 24 24 25 26 28 30 29 28 27 26 26 28 30 30 29 30 32 32 30 28 28 28 28 28 28 26 26 26 25 25 25 25 25 24 23 22 22 22 20 20 20 17 13 10
29 29 29 29 28 28 28 27 27 28 29 30 30 29 29 28 28 27 27 26 25 25 24 21 19 16 16 18 21 22 19 16 17 19 20 22 23 23 22 23 23 23 23 25 26 28 29 29 28 29 28 27 28 29 28 27 28 29 29 29 29 29 29 29 29 29 29 28 28 28 27 26 27 27 25 23 23 23 23 21 21 21 19 14 12
28 28 28 28 28 27 27 27 27 28 28 28 28 27 26 26 26 26 25 25 24 23 20 17 16 17 16 17 19 19 17 17 18 19 19 22 24 23 23 24 24 23 23 25 27 28 28 28 29 30 30 29 29 28 27 26 26 26 25 26 27 27 27 27 27 28 28 29 29 29 29 28 27 27 25 23 22 22 23 22 21 20 19 17 15
28 28 28 28 28 27 27 27 27 28 28 27 26 25 25 25 25 25 25 25 23 20 16 14 15 16 15 16 18 18 17 17 19 19 21 23 25 24 24 24 24 24 24 25 27 29 29 29 30 30 30 29 28 28 27 26 25 24 24 23 24 24 25 25 25 25 26 26 28 29 30 29 28 26 24 24 24 24 24 23 21 19 19 19 18
28 27 27 27 26 26 26 26 26 26 26 24 24 24 24 24 24 23 21 18 15 14 14 14 14 14 13 14 17 18 17 18 19 20 21 24 26 26 26 26 26 27 27 27 27 28 30 31 31 30 30 28 27 27 26 25 24 23 22 22 22 23 25 25 25 23 22 23 25 27 28 29 29 27 26 27 27 27 25 24 22 20 19 19 18
26 25 25 25 25 24 25 24 24 24 23 21 20 20 18 15 13 10 9 9 10 12 14 14 14 14 14 15 16 17 18 19 20 20 21 24 26 26 27 28 30 30 30 29 28 29 31 32 32 31 30 28 27 26 26 26 26 26 25 25 25 25 26 25 24 23 23 24 26 27 28 29 29 29 28 27 26 25 24 23 21 20 19 18 17
23 23 22 23 23 23 23 22 21 21 19 16 14 12 10 6 3 3 7 9 10 12 13 14 14 16 16 17 18 18 18 19 20 21 23 26 29 29 28 29 31 33 34 33 32 32 33 32 32 31 31 30 29 28 28 28 28 28 28 28 27 27 26 25 25 25 26 27 28 28 29 29 28 27 26 24 23 23 22 20 20 19 17 17 17
21 21 21 21 21 20 20 19 18 17 15 12 10 7 5 2 1 4 8 10 11 13 14 15 16 18 18 18 19 19 20 21 22 22 23 26 29 31 32 33 34 36 37 37 36 36 35 34 32 32 32 32 31 30 30 29 29 28 28 28 27 27 27 27 27 27 27 28 28 28 28 27 27 26 25 23 22 21 20 19 18 18 17 17 17
Wind_Direction
358 356 353 351 349 347 345 337 322 308 296 287 281 273 266 263 262 262 261 258 254 251 248 245 245 246 248 247 243 238 235 231 224 222 224 223 222 222 220 217 218 220 222 224 223 223 224 225 227 228 227 227 227 226 224 222 220 218 217 218 219 218 220 224 230 245 255 258 260 258 256 252 252 251 245 250 259 259 255 261 273 286 288 281 271
355 353 351 349 349 350 351 348 340 330 315 300 289 282 277 272 269 267 265 262 259 256 255 252 248 247 248 246 243 240 239 235 228 221 222 225 223 221 220 217 218 219 220 222 222 221 224 226 227 228 228 231 232 228 224 222 222 220 216 215 217 219 220 223 227 233 248 256 258 259 258 253 253 255 249 246 247 245 251 260 271 285 287 278 266
351 351 350 347 347 349 350 348 346 342 333 319 305 294 286 280 275 271 267 265 262 259 256 254 250 246 244 242 239 239 239 237 232 224 221 226 225 222 221 219 218 219 219 222 222 221 223 226 226 225 225 229 230 229 228 227 224 221 218 218 220 222 221 221 223 226 235 248 253 256 258 255 254 255 247 240 241 247 253 255 265 281 283 276 266
349 350 349 347 347 348 347 347 348 346 340 331 324 316 304 290 281 274 270 267 264 261 257 253 249 245 243 242 239 239 240 239 234 227 224 228 227 225 224 222 221 221 221 222 223 222 223 225 225 224 223 227 229 229 227 225 223 220 220 220 220 221 223 222 225 229 233 242 247 249 254 257 256 254 246 241 243 250 257 258 261 269 272 268 255
347 347 347 346 347 346 345 346 347 346 344 340 336 331 323 309 294 283 276 271 266 262 260 256 250 246 245 243 238 238 240 239 234 227 226 229 228 227 226 224 224 224 224 224 224 223 223 225 225 223 223 226 228 227 224 221 222 221 219 220 221 222 224 225 226 228 230 235 240 245 250 253 256 258 257 255 251 253 262 265 262 257 257 256 243
346 345 344 343 343 343 343 342 342 343 343 342 340 337 332 324 312 298 286 278 272 266 262 258 254 250 247 243 239 238 238 235 231 227 227 228 228 227 227 226 226 226 226 225 225 225 226 227 226 223 222 224 224 223 222 222 222 220 219 220 222 222 222 223 225 226 230 235 240 242 242 244 251 260 264 262 260 260 264 267 265 261 256 248 234
344 342 341 340 339 340 340 340 339 339 339 340 341 340 337 334 326 315 303 289 278 271 266 262 258 253 249 244 241 239 236 233 232 229 226 227 227 227 226 226 226 227 227 227 226 227 228 228 226 224 224 224 222 221 222 222 221 220 221 221 222 222 222 222 224 224 227 231 233 235 239 241 244 249 256 262 263 260 260 261 261 259 253 242 226
339 339 339 338 337 337 337 337 337 337 338 340 342 341 340 338 333 325 316 303 288 278 271 266 262 258 252 247 244 242 239 238 236 231 226 226 227 227 226 225 225 225 226 227 227 228 228 227 226 226 227 226 225 223 222 221 220 220 222 222 221 221 220 220 221 221 221 226 230 233 237 238 236 236 244 252 251 248 252 252 247 248 251 242 229
336 336 337 335 335 334 334 334 334 334 337 339 340 341 341 340 337 332 325 316 303 289 279 271 264 259 255 250 247 244 240 238 237 233 228 226 226 227 226 225 225 226 226 227 228 229 229 228 227 228 229 228 227 226 224 222 220 220 221 222 220 219 219 219 220 221 222 225 229 231 229 228 230 232 236 238 234 238 245 241 236 242 248 238 228
333 333 332 332 332 332 332 333 332 332 333 334 335 338 339 339 338 336 330 322 313 302 288 276 267 260 256 251 247 243 239 238 238 236 233 230 227 227 227 227 227 227 227 227 228 228 228 229 230 230 230 230 229 228 227 227 226 223 222 222 220 217 217 218 220 221 220 221 225 227 225 224 227 228 230 232 234 238 239 232 232 236 233 223 225
330 329 328 328 329 330 330 331 331 330 330 330 331 332 334 336 336 338 336 328 320 312 296 281 270 261 256 251 246 243 241 241 241 239 237 235 231 229 230 230 228 227 227 226 227 227 227 228 229 229 229 229 229 229 230 230 230 228 227 227 225 222 220 221 223 221 218 218 222 223 222 223 225 225 226 230 234 234 233 232 230 223 213 207 222
326 326 326 326 327 327 328 328 329 329 328 328 329 329 331 334 335 336 336 332 326 317 301 286 275 266 258 252 248 245 244 243 242 240 239 237 234 231 231 231 228 227 226 226 227 227 226 226 226 227 227 227 228 228 229 229 231 232 232 230 229 228 225 222 222 221 219 221 224 223 224 227 227 223 224 230 234 232 230 230 224 212 206 209 216
322 322 322 323 325 325 326 326 326 327 327 326 327 328 328 328 330 332 333 333 330 322 311 295 280 269 260 254 250 248 246 245 242 240 240 238 235 232 230 230 230 228 226 226 226 226 225 224 224 224 225 226 227 227 227 227 227 226 224 223 223 225 226 226 228 232 230 224 221 220 221 223 224 227 233 237 232 223 219 218 216 210 209 212 215
320 321 320 320 321 322 324 324 323 323 324 325 325 326 325 323 325 329 330 331 329 324 317 303 287 276 265 257 253 250 248 247 245 243 241 240 237 233 230 230 231 229 227 227 227 226 226 224 223 223 224 224 224 224 222 220 220 220 221 224 227 229 232 231 229 230 228 221 222 230 233 235 239 243 245 239 226 217 216 217 217 213 210 211 214
317 317 318 318 319 320 322 322 321 320 321 323 323 323 323 321 322 324 325 325 325 324 319 309 298 287 274 264 258 254 252 250 247 245 243 241 238 234 230 229 230 229 228 228 227 227 226 225 224 223 223 224 223 222 221 220 220 222 224 225 225 225 226 227 225 226 229 232 239 246 245 243 241 235 229 225 220 220 223 222 219 212 204 202 205
315 314 314 316 318 319 320 319 319 319 319 320 320 320 320 320 320 321 321 322 323 323 320 314 305 293 282 273 262 257 256 253 249 247 244 241 237 232 227 226 226 226 225 225 225 224 224 223 223 222 222 223 222 221 220 217 214 213 214 214 215 217 219 222 224 226 229 230 232 234 233 231 226 219 217 221 222 220 215 207 205 200 190 183 189
312 312 311 313 315 316 317 317 316 316 317 316 315 315 317 316 317 318 318 317 317 317 316 313 308 298 286 277 267 262 261 258 253 249 245 240 234 227 222 219 219 219 220 220 220 221 222 222 221 219 220 221 220 217 214 211 208 208 208 209 211 214 216 219 220 220 221 221 220 221 222 221 218 219 220 220 221 218 207 197 195 190 183 178 182
310 310 309 311 312 312 313 312 312 312 313 313 312 312 312 313 313 314 314 311 310 310 311 310 307 299 288 279 272 267 264 263 258 250 243 238 230 220 215 212 211 212 213 215 216 218 221 223 221 219 219 220 218 213 210 209 209 209 209 209 208 210 212 212 210 209 211 214 217 219 221 222 225 230 230 223 219 215 208 206 204 194 190 194 178
308 308 307 308 308 309 308 308 307 308 308 309 309 309 309 310 310 311 311 308 305 306 307 307 304 299 290 282 278 272 265 263 260 249 240 233 223 214 209 207 207 208 208 210 214 217 220 222 222 221 221 220 217 211 209 209 210 210 210 208 206 208 210 208 205 205 205 206 209 211 214 216 219 221 218 212 210 208 206 208 207 199 196 193 171
307 306 305 306 305 305 305 305 304 304 304 306 306 305 306 307 307 308 309 308 306 303 302 302 301 297 291 285 282 275 265 261 258 249 238 229 220 212 208 208 208 207 207 208 210 214 216 218 220 220 220 219 215 210 210 210 211 212 210 206 205 207 208 206 204 204 201 198 197 197 196 196 196 196 196 199 203 206 206 208 208 205 201 190 177
306 305 304 304 303 303 303 303 302 302 302 303 303 302 302 302 303 304 305 306 305 302 300 299 296 292 289 285 281 276 267 259 256 250 239 229 221 215 214 217 214 209 208 207 208 210 212 214 216 214 212 214 213 211 213 212 209 208 207 205 206 206 202 198 196 196 195 191 186 184 183 183 184 187 193 197 201 203 205 206 205 202 199 189 180
305 306 305 303 301 301 302 301 301 301 300 301 302 301 299 299 300 300 301 301 301 299 298 296 291 286 284 282 278 275 268 259 253 250 241 231 225 220 218 221 220 214 210 208 208 210 211 212 212 209 208 212 213 211 209 205 202 204 206 205 206 205 200 194 192 190 188 184 179 177 177 178 180 183 187 189 190 189 188 189 190 189 190 187 182
305 306 304 302 300 300 301 301 301 299 298 299 300 298 297 297 297 296 296 296 295 294 294 292 287 281 279 277 273 271 269 261 253 249 243 233 227 224 222 221 221 218 214 213 212 212 213 213 212 210 209 209 206 203 201 201 204 208 208 206 204 203 199 194 189 185 181 178 176 176 177 179 179 180 182 180 177 174 171 171 174 176 178 179 179
305 304 302 301 300 300 301 300 299 297 295 296 296 294 293 294 295 295 293 290 288 287 288 289 285 277 272 272 270 267 265 261 255 250 244 236 228 225 224 223 222 220 218 218 217 216 217 215 211 208 204 200 198 199 202 204 205 204 202 200 200 197 192 187 182 178 176 177 178 179 180 182 181 179 178 175 171 168 166 165 169 171 171 171 171
302 301 299 297 297 298 299 298 296 294 293 292 291 290 290 291 292 292 291 288 284 280 281 281 278 273 269 266 264 261 258 257 254 250 245 237 229 225 223 223 224 223 219 218 218 220 219 215 208 202 198 196 197 199 201 200 198 197 196 195 194 191 187 184 179 176 177 179 181 183 183 183 182 179 177 173 169 167 166 166 167 168 168 166 163
299 298 296 295 295 297 298 296 293 292 292 290 287 285 286 288 289 289 289 287 284 280 279 276 271 270 268 261 258 258 255 250 248 247 244 237 230 225 222 221 223 224 222 220 221 223 220 213 205 198 195 195 195 195 195 196 197 199 200 199 197 192 188 184 181 180 182 183 184 185 183 181 180 177 174 170 167 167 170 169 166 164 165 163 157
297 296 293 293 295 297 297 296 293 292 292 290 287 286 284 284 285 285 285 285 284 283 281 278 272 267 266 263 261 260 255 246 241 238 236 233 230 224 219 217 217 217 219 219 217 216 212 205 200 196 192 192 194 196 200 203 205 205 204 203 202 198 195 193 190 189 189 188 185 183 180 177 176 173 171 171 171 172 173 173 168 164 164 161 155
293 291 289 290 292 293 294 294 292 291 290 289 288 286 284 283 282 281 279 279 281 282 282 282 279 273 270 269 268 263 253 244 240 235 229 226 226 222 216 213 211 210 210 209 206 202 198 193 190 188 187 188 190 193 196 197 195 194 194 196 198 199 199 199 197 195 194 190 183 179 177 174 172 172 172 175 178 178 174 173 172 169 166 163 158
291 288 287 287 287 288 290 290 289 290 291 291 290 287 284 282 282 282 279 275 273 274 277 278 277 276 276 273 267 261 255 251 249 244 234 226 223 220 216 213 210 207 205 201 193 186 182 180 180 180 181 181 181 181 180 179 179 182 184 188 192 193 194 192 190 190 189 185 181 179 177 173 173 174 175 176 181 183 179 174 175 174 172 173 175
290 287 285 284 284 286 289 288 287 287 288 289 290 289 286 284 281 279 278 277 274 271 271 271 272 273 273 270 265 260 259 261 262 260 250 237 226 219 218 216 211 205 201 195 187 180 176 178 181 182 181 180 179 179 177 176 175 177 178 179 181 183 184 185 185 185 185 184 183 181 177 174 174 175 175 175 178 182 183 180 179 178 178 181 185
284 282 283 283 284 287 289 287 285 285 283 283 284 285 286 286 284 278 275 276 277 274 270 270 271 271 268 265 265 263 262 264 265 262 256 245 231 223 220 216 211 206 199 191 185 182 181 183 187 188 185 183 182 181 179 178 176 175 173 172 175 178 178 180 182 183 182 183 183 181 179 179 178 176 178 178 177 178 181 181 180 181 183 184 184
280 285 288 288 287 286 284 282 282 283 282 282 282 280 281 285 287 285 280 276 276 275 272 271 272 272 268 263 262 262 262 261 259 255 251 245 235 227 222 216 211 207 199 191 189 189 189 189 191 191 188 187 184 182 180 180 178 175 171 169 172 177 178 178 181 182 180 180 181 181 182 183 182 179 180 181 179 177 178 179 180 182 182 180 180
292 292 289 286 285 283 280 279 280 280 280 280 279 277 276 277 282 287 288 284 277 273 271 270 270 270 269 265 262 260 259 258 255 249 243 238 233 227 221 215 211 204 195 192 194 196 193 192 193 193 191 188 185 182 181 181 178 176 173 170 169 173 175 177 178 177 177 180 183 184 185 186 184 182 182 183 182 180 178 179 181 181 179 175 175
293 286 281 280 280 279 278 278 277 276 276 276 274 273 274 273 272 277 284 288 285 277 273 272 270 267 264 263 263 262 259 255 250 242 235 231 228 222 215 210 207 203 198 196 197 198 196 193 193 192 190 189 185 181 180 178 176 174 173 171 168 169 171 173 173 171 172 176 180 183 186 187 186 184 183 183 181 180 180 180 179 176 172 168 164
288 281 278 276 275 276 276 275 273 273 273 273 272 272 271 271 269 269 271 277 282 282 278 276 273 268 261 260 263 263 260 254 247 237 229 225 222 214 204 197 197 198 199 199 199 198 195 193 192 191 189 189 187 182 179 177 175 174 174 173 171 170 169 170 172 173 172 170 169 175 183 186 187 187 186 184 182 179 178 178 176 173 171 166 160
284 281 278 276 275 275 276 273 271 271 271 271 271 271 270 270 270 269 268 269 272 276 277 276 275 271 265 261 260 260 258 252 243 233 225 220 213 202 193 191 194 196 198 200 200 198 196 194 193 191 191 190 187 183 180 178 177 177 176 174 172 170 170 172 174 175 175 175 175 177 179 182 185 187 186 185 182 179 176 175 173 173 174 169 162
281 279 278 278 278 276 274 272 269 269 269 270 270 270 269 269 268 267 267 266 265 268 271 272 273 270 264 258 253 250 250 247 239 229 222 216 208 200 196 196 197 196 197 199 198 195 194 193 190 189 191 195 190 183 180 177 177 176 175 174 172 172 173 176 177 176 175 175 176 178 178 180 184 185 184 181 178 175 175 173 169 168 173 172 164
278 276 277 277 277 275 274 272 271 270 269 268 268 267 267 267 266 265 264 262 261 262 264 266 265 261 256 251 243 237 236 234 226 219 214 209 203 200 199 198 197 196 198 198 195 192 188 184 184 188 195 205 198 186 179 175 175 174 172 170 171 173 174 175 176 176 176 174 175 177 179 182 183 183 182 180 174 169 168 167 159 155 164 170 166
279 278 277 276 275 273 272 271 272 272 270 267 266 267 267 266 265 264 262 261 260 260 259 260 258 253 248 241 228 216 211 208 206 206 206 204 202 201 200 199 197 197 196 194 192 191 189 186 187 191 197 202 197 186 179 175 174 174 171 169 168 170 172 173 174 175 175 174 175 176 177 179 179 179 180 178 171 163 160 159 155 151 155 161 163
283 280 278 277 275 272 271 271 271 270 269 267 267 267 266 264 264 263 262 261 260 259 258 257 255 250 243 231 214 201 196 198 201 201 201 202 203 204 204 202 200 198 195 191 189 189 190 189 189 191 194 195 192 185 178 175 172 171 171 170 168 169 171 173 175 176 175 175 177 176 176 175 170 168 172 172 166 162 161 157 154 151 149 151 158
282 280 279 278 276 274 272 270 268 267 267 267 267 266 265 263 262 262 261 260 259 258 257 256 254 251 244 231 215 206 202 204 204 202 201 202 204 204 205 206 203 199 195 191 189 189 189 187 186 186 186 187 185 181 177 174 171 169 169 169 168 168 171 174 176 177 176 176 176 175 175 174 170 166 165 165 162 162 160 154 149 150 147 146 153
281 279 279 278 276 274 271 268 267 268 268 267 266 264 264 263 262 260 259 258 257 258 257 256 255 252 243 229 216 211 210 210 206 203 202 202 203 203 203 204 204 200 195 191 189 188 185 181 180 180 177 177 178 177 175 173 169 166 167 169 168 167 171 174 176 176 176 176 176 176 174 173 172 169 166 164 160 158 155 151 148 149 148 144 146
280 280 279 278 276 273 270 269 269 269 267 266 264 262 261 261 261 259 257 256 256 255 254 254 253 248 236 222 214 211 211 211 206 201 198 196 194 193 192 193 194 192 187 185 184 182 177 173 172 172 171 173 175 174 173 171 170 169 170 172 170 169 172 175 176 176 176 175 174 174 172 170 169 166 164 162 158 155 153 151 148 148 147 142 138
282 281 279 277 275 273 270 269 269 268 267 267 265 263 261 261 260 259 258 257 256 253 250 248 245 235 219 209 207 206 205 202 195 188 184 180 178 176 176 177 178 175 173 174 175 175 173 170 167 166 167 170 172 172 172 173 176 178 178 176 174 175 178 179 177 177 178 175 172 170 169 167 166 164 160 159 157 153 150 149 148 147 146 141 136
282 280 279 277 275 273 272 270 269 269 269 268 265 263 262 261 260 258 256 255 255 253 248 240 229 213 197 191 194 193 188 181 176 172 169 167 167 167 168 169 169 167 166 167 169 169 169 168 164 162 162 164 167 170 172 173 177 182 183 181 180 181 182 183 182 181 180 176 170 168 167 166 165 162 158 156 155 152 149 148 147 146 146 143 140
282 280 278 277 275 274 273 273 271 270 269 267 265 264 262 261 260 257 252 251 251 248 238 220 203 192 184 180 180 178 172 168 167 165 163 163 162 161 160 161 162 161 161 163 165 165 164 162 161 160 159 160 164 168 170 171 174 179 181 182 183 183 183 185 185 182 180 177 172 168 166 165 164 161 157 154 153 151 148 146 144 143 144 145 143
283 280 277 276 275 274 274 275 274 272 270 268 267 266 265 263 262 258 253 249 243 231 211 190 180 178 174 170 169 165 158 159 161 161 160 159 157 155 153 153 153 154 154 156 160 162 161 160 159 157 156 157 160 162 163 164 168 171 174 178 181 180 178 178 177 175 176 176 173 168 165 163 162 160 156 152 150 148 144 142 141 139 140 143 143
283 280 277 276 276 276 277 277 276 275 273 271 270 269 267 265 262 257 248 238 221 197 175 163 161 160 154 153 157 156 151 150 152 152 152 154 154 153 151 149 148 149 148 147 149 153 155 156 155 153 151 151 152 153 155 157 159 161 164 167 170 169 166 165 165 167 170 171 169 165 161 156 153 151 149 146 144 142 140 139 138 137 138 140 142
284 281 280 280 280 279 280 280 279 278 277 275 273 273 270 264 256 241 213 184 164 154 150 147 146 144 138 137 142 144 142 143 142 139 141 144 145 145 145 145 144 144 143 139 138 142 145 146 146 146 145 145 146 146 147 148 149 150 152 153 155 157 158 157 157 158 158 159 158 155 152 147 144 143 143 141 139 139 140 139 140 141 141 140 141
289 287 285 285 285 285 284 284 282 281 282 280 279 280 279 270 245 158 140 135 131 133 137 137 136 136 136 135 136 136 134 133 132 130 132 137 139 138 135 134 134 135 135 133 132 134 136 137 139 139 139 138 138 138 139 141 143 144 145 147 149 151 151 150 149 148 149 149 148 147 145 142 140 140 140 140 140 140 140 142 144 145 144 142 140
298 297 293 291 291 291 292 292 291 290 293 295 298 304 316 334 53 113 122 121 117 120 125 126 128 131 130 129 130 131 130 129 129 127 126 130 134 134 132 129 128 129 129 129 128 129 130 132 133 134 133 133 134 135 136 136 137 138 139 141 143 144 144 144 144 143 143 143 142 142 141 140 139 140 141 141 141 140 139 140 143 143 143 142 141